Weather History for Biloxi, MS

Change the Weather History Date:

Monday, December 10, 2012

  Actual Average Record
Temperature  
Mean Temperature 62 °F -  
Max Temperature 74 °F 65 °F 75 °F (1983)
Min Temperature 48 °F 48 °F 25 °F (1955)
Degree Days  
Heating Degree Days 3    
Growing Degree Days 12 (Base 50)    
Moisture  
Dew Point 62 °F    
Average Humidity 92    
Maximum Humidity 100    
Minimum Humidity 82    
Precipitation  
Precipitation 0.12 in - - ()
Sea Level Pressure  
Sea Level Pressure 29.85 in    
Wind  
Wind Speed 10 mph (WSW)    
Max Wind Speed 20 mph    
Max Gust Speed 24 mph    
Visibility 9 miles    
Events Rain    
Averages and records for this station are not official NWS values.
T = Trace of Precipitation, MM = Missing Value Source: NWS Daily Summary

Daily Weather History Graph

Daily Weather History Graph

Search for Another Location

Airport:

Trip Planner

Search our weather history database for the weather conditions in past years. The results will help you decide how hot, cold, wet, or windy it might be!

Date:

Astronomy

Dec. 10, 2012 Rise Set
Actual Time 6:42 AM CST 4:55 PM CST
Civil Twilight 6:15 AM CST 5:21 PM CST
Nautical Twilight 5:45 AM CST 5:51 PM CST
Astronomical Twilight 5:16 AM CST 6:21 PM CST
Moon 3:33 AM CST (12/10) 2:38 PM CST (12/10)
Length of Visible Light 11h 06m
Length of Day
10h 13m
Waning Crescent, 10% of the Moon is Illuminated
Dec 10
Waning Crescent
Dec 13
New
Dec 19
First Quarter
Dec 28
Full
Jan 4
Last Quarter

Hourly Weather History & Observations

Time (CST) Temp. Dew Point Humidity Pressure Visibility Wind Dir Wind Speed Gust Speed Precip Events Conditions
12:55 AM 68.9 °F 67.5 °F 95% 29.92 in 10.0 mi South 11.5 mph - N/A   Partly Cloudy
1:55 AM 68.7 °F 67.6 °F 96% 29.91 in 10.0 mi South 10.4 mph - N/A   Clear
2:55 AM 68.5 °F 67.5 °F 96% 29.89 in 10.0 mi South 9.2 mph - N/A   Clear
3:55 AM 68.5 °F 67.5 °F 96% 29.86 in 10.0 mi South 10.4 mph - N/A   Mostly Cloudy
4:55 AM 68.5 °F 67.5 °F 96% 29.83 in 10.0 mi South 11.5 mph - N/A   Mostly Cloudy
5:55 AM 68.9 °F 67.8 °F 96% 29.84 in 10.0 mi South 10.4 mph - N/A   Mostly Cloudy
6:28 AM 69.8 °F 68.0 °F 94% 29.83 in 10.0 mi South 12.7 mph - N/A   Mostly Cloudy
6:32 AM 69.8 °F 68.0 °F 94% 29.84 in 10.0 mi South 11.5 mph - N/A   Mostly Cloudy
6:35 AM 69.8 °F 68.0 °F 94% 29.84 in 10.0 mi South 10.4 mph - N/A   Mostly Cloudy
6:55 AM 68.9 °F 67.8 °F 96% 29.84 in 10.0 mi South 10.4 mph - N/A   Mostly Cloudy
6:58 AM 69.8 °F 68.0 °F 94% 29.85 in 10.0 mi South 8.1 mph - N/A   Overcast
7:12 AM 69.8 °F 68.0 °F 94% 29.85 in 10.0 mi South 10.4 mph - N/A   Mostly Cloudy
7:18 AM 69.8 °F 68.0 °F 94% 29.85 in 10.0 mi South 10.4 mph - N/A   Mostly Cloudy
7:20 AM 69.8 °F 68.0 °F 94% 29.85 in 10.0 mi South 10.4 mph - N/A   Mostly Cloudy
7:36 AM 68.0 °F 68.0 °F 100% 29.86 in 10.0 mi SSW 9.2 mph - N/A   Scattered Clouds
7:42 AM 68.0 °F 68.0 °F 100% 29.86 in 10.0 mi SSW 8.1 mph - N/A   Mostly Cloudy
7:55 AM 68.9 °F 67.8 °F 96% 29.86 in 10.0 mi South 10.4 mph - N/A   Mostly Cloudy
8:55 AM 71.4 °F 68.9 °F 92% 29.86 in 10.0 mi SSW 12.7 mph - N/A   Mostly Cloudy
9:35 AM 73.4 °F 69.8 °F 88% 29.85 in 10.0 mi SSW 13.8 mph 20.7 mph N/A   Mostly Cloudy
9:55 AM 74.1 °F 69.3 °F 85% 29.84 in 10.0 mi SSW 13.8 mph 21.9 mph N/A   Scattered Clouds
10:55 AM 73.9 °F 68.7 °F 84% 29.83 in 10.0 mi SW 16.1 mph - N/A   Scattered Clouds
11:55 AM 73.6 °F 68.2 °F 83% 29.82 in 10.0 mi SW 12.7 mph - N/A   Mostly Cloudy
12:13 PM 71.6 °F 66.2 °F 83% 29.84 in 7.0 mi West 8.1 mph 17.3 mph N/A Rain Light Rain
12:17 PM 69.8 °F 66.2 °F 88% 29.83 in 2.5 mi West 10.4 mph 17.3 mph N/A Rain Light Rain
12:18 PM 69.8 °F 66.2 °F 88% 29.83 in 2.0 mi West 12.7 mph 17.3 mph N/A Rain Light Rain
12:19 PM 68.0 °F 64.4 °F 88% 29.83 in 1.8 mi WSW 12.7 mph 17.3 mph N/A Rain Heavy Rain
12:20 PM 68.0 °F 64.4 °F 88% 29.83 in 1.5 mi WSW 12.7 mph 17.3 mph N/A Rain Heavy Rain
12:24 PM 68.0 °F 64.4 °F 88% 29.82 in 1.8 mi WSW 11.5 mph 17.3 mph N/A Rain Light Rain
12:25 PM 68.0 °F 64.4 °F 88% 29.82 in 2.0 mi WSW 11.5 mph 17.3 mph N/A Rain Light Rain
12:27 PM 68.0 °F 64.4 °F 88% 29.82 in 2.5 mi WSW 10.4 mph - N/A Rain Light Rain
12:28 PM 68.0 °F 64.4 °F 88% 29.82 in 4.0 mi WSW 9.2 mph - N/A Rain Light Rain
12:38 PM 66.2 °F 64.4 °F 94% 29.81 in 10.0 mi WSW 11.5 mph 19.6 mph N/A   Mostly Cloudy
12:55 PM 66.6 °F 64.2 °F 92% 29.81 in 10.0 mi WSW 9.2 mph - 0.07 in   Mostly Cloudy
1:06 PM 66.2 °F 64.4 °F 94% 29.81 in 10.0 mi WSW 10.4 mph - N/A Rain Light Rain
1:43 PM 66.2 °F 64.4 °F 94% 29.81 in 10.0 mi WSW 13.8 mph - N/A Rain Light Rain
1:47 PM 66.2 °F 64.4 °F 94% 29.80 in 10.0 mi WSW 11.5 mph - N/A Rain Light Rain
1:53 PM 66.2 °F 64.4 °F 94% 29.81 in 10.0 mi WSW 10.4 mph - N/A Rain Light Rain
1:55 PM 66.2 °F 64.4 °F 94% 29.80 in 10.0 mi WSW 10.4 mph - 0.03 in   Mostly Cloudy
1:58 PM 66.2 °F 64.4 °F 94% 29.81 in 10.0 mi WSW 8.1 mph - N/A   Mostly Cloudy
2:05 PM 66.2 °F 64.4 °F 94% 29.80 in 10.0 mi WSW 6.9 mph - N/A Rain Light Rain
2:42 PM 66.2 °F 64.4 °F 94% 29.80 in 10.0 mi West 5.8 mph - N/A Rain Light Rain
2:55 PM 66.2 °F 64.8 °F 95% 29.80 in 10.0 mi Variable 3.5 mph - 0.01 in Rain Light Rain
2:56 PM 66.2 °F 64.4 °F 94% 29.80 in 10.0 mi Variable 3.5 mph - N/A   Mostly Cloudy
3:09 PM 66.2 °F 64.4 °F 94% 29.79 in 10.0 mi Calm Calm - N/A Rain Light Rain
3:10 PM 66.2 °F 64.4 °F 94% 29.79 in 10.0 mi Variable 3.5 mph - N/A Rain Light Rain
3:12 PM 66.2 °F 64.4 °F 94% 29.80 in 10.0 mi West 4.6 mph - N/A Rain Light Rain
3:15 PM 66.2 °F 64.4 °F 94% 29.80 in 10.0 mi WSW 4.6 mph - N/A Rain Light Rain
3:19 PM 66.2 °F 64.4 °F 94% 29.80 in 10.0 mi West 4.6 mph - N/A Rain Light Rain
3:28 PM 66.2 °F 64.4 °F 94% 29.80 in 10.0 mi West 3.5 mph - N/A   Mostly Cloudy
3:47 PM 66.2 °F 64.4 °F 94% 29.81 in 10.0 mi Variable 5.8 mph - N/A   Overcast
3:55 PM 65.1 °F 63.1 °F 93% 29.81 in 10.0 mi Variable 3.5 mph - 0.01 in   Overcast
4:06 PM 64.4 °F 62.6 °F 94% 29.81 in 10.0 mi Variable 3.5 mph - N/A   Overcast
4:07 PM 64.4 °F 62.6 °F 94% 29.81 in 10.0 mi Variable 3.5 mph - N/A   Overcast
4:11 PM 64.4 °F 62.6 °F 94% 29.82 in 10.0 mi Variable 4.6 mph - N/A   Overcast
4:12 PM 64.4 °F 62.6 °F 94% 29.82 in 10.0 mi Variable 4.6 mph - N/A   Overcast
4:18 PM 64.4 °F 62.6 °F 94% 29.82 in 10.0 mi Variable 3.5 mph - N/A   Overcast
4:24 PM 64.4 °F 62.6 °F 94% 29.83 in 10.0 mi Variable 4.6 mph - N/A   Overcast
4:43 PM 62.6 °F 60.8 °F 94% 29.83 in 10.0 mi Variable 6.9 mph - N/A   Overcast
4:54 PM 60.8 °F 59.0 °F 94% 29.83 in 10.0 mi NNW 8.1 mph - N/A   Overcast
4:55 PM 61.0 °F 59.5 °F 95% 29.83 in 10.0 mi NNW 6.9 mph - N/A   Overcast
5:08 PM 60.8 °F 59.0 °F 94% 29.84 in 2.5 mi Variable 4.6 mph - N/A   Light Drizzle
5:28 PM 57.2 °F 57.2 °F 100% 29.86 in 10.0 mi Variable 6.9 mph - N/A   Overcast
5:35 PM 57.2 °F 55.4 °F 94% 29.86 in 10.0 mi NNW 9.2 mph - N/A   Overcast
5:48 PM 57.2 °F 55.4 °F 94% 29.87 in 10.0 mi NNW 9.2 mph 17.3 mph N/A   Overcast
5:55 PM 56.1 °F 54.1 °F 93% 29.88 in 10.0 mi NNW 8.1 mph - N/A   Overcast
6:50 PM 55.4 °F 51.8 °F 88% 29.91 in 10.0 mi Variable 6.9 mph - N/A   Overcast
6:55 PM 54.9 °F 52.3 °F 91% 29.91 in 10.0 mi NNW 9.2 mph - N/A   Overcast
7:21 PM 53.6 °F 51.8 °F 94% 29.91 in 10.0 mi NNW 16.1 mph - N/A   Overcast
7:55 PM 53.6 °F 50.5 °F 89% 29.92 in 10.0 mi North 15.0 mph 21.9 mph N/A   Overcast
8:55 PM 52.3 °F 47.5 °F 84% 29.95 in 10.0 mi North 16.1 mph 21.9 mph N/A   Overcast
9:06 PM 51.8 °F 46.4 °F 82% 29.94 in 10.0 mi North 17.3 mph 24.2 mph N/A   Overcast
9:26 PM 51.8 °F 46.4 °F 82% 29.94 in 10.0 mi North 19.6 mph 24.2 mph N/A   Overcast
9:43 PM 51.8 °F 46.4 °F 82% 29.96 in 10.0 mi North 16.1 mph - N/A   Overcast
9:55 PM 51.1 °F 46.2 °F 83% 29.96 in 10.0 mi North 15.0 mph - N/A   Overcast
10:09 PM 51.8 °F 46.4 °F 82% 29.96 in 10.0 mi NNW 15.0 mph - N/A   Overcast
10:48 PM 50.0 °F 44.6 °F 82% 29.97 in 10.0 mi North 11.5 mph - N/A   Overcast
10:55 PM 50.0 °F 45.3 °F 84% 29.96 in 10.0 mi North 13.8 mph - N/A   Mostly Cloudy
11:16 PM 48.2 °F 42.8 °F 82% 29.97 in 10.0 mi North 13.8 mph - N/A   Scattered Clouds